1504029600.53,42570,24.31,74386.3,3.65,-31.01,-31.33,0,*78
1504029601.75,42571,24.25,74382.5,3.67,-31.01,-31.45,0,*7A
1504029602.99,42572,24.25,74380.8,3.65,-30.95,-31.29,0,*7D
1504029604.19,42573,24.25,74380.3,3.65,-31.01,-31.33,0,*7B
1504029605.44,42574,24.25,74380.0,3.67,-31.11,-31.33,0,*7F
1504029606.7,42575,24.25,74382.3,3.67,-30.77,-31.17,0,*79
1504029607.91,42576,24.25,74384.3,3.65,-31.17,-31.45,0,*78
1504029609.14,42577,24.25,74382.8,3.65,-31.11,-31.33,0,*7E
1504029610.4,42578,24.25,74384.5,3.67,-30.95,-31.29,0,*75
1504029611.63,42579,24.25,74382.8,3.67,-31.17,-31.45,0,*75
1504029612.91,42580,24.25,74382.3,3.71,-31.11,-31.39,0,*79
1504029614.14,42581,24.25,74384.3,3.65,-30.95,-31.17,0,*7C
1504029615.4,42582,24.31,74386.0,3.67,-30.89,-31.17,0,*70
1504029616.65,42583,24.25,74380.0,3.67,-30.77,-31.01,0,*77
1504029617.91,42584,24.25,74382.8,3.67,-30.95,-31.17,0,*7B
1504029619.19,42585,24.31,74386.0,3.67,-30.89,-31.11,0,*71
1504029620.47,42586,24.25,74380.5,3.67,-30.89,-31.11,0,*72
1504029621.73,42587,24.25,74382.8,3.67,-30.95,-31.29,0,*75
1504029622.98,42588,24.25,74380.8,3.67,-31.11,-31.33,0,*7C
1504029624.26,42589,24.25,74382.0,3.67,-30.89,-31.11,0,*7D
1504029625.49,42590,24.25,74384.5,3.67,-31.01,-31.29,0,*7F
1504029626.74,42591,24.25,74382.5,3.71,-30.83,-31.11,0,*79
1504029627.99,42592,24.25,74380.3,3.71,-30.95,-31.29,0,*76
1504029629.2,42593,24.31,74386.8,3.73,-30.83,-31.01,0,*78
1504029630.43,42594,24.25,74386.0,3.73,-30.77,-31.17,0,*73
1504029631.71,42595,24.25,74380.3,3.71,-31.11,-31.39,0,*7D
1504029632.99,42596,24.25,74380.8,3.71,-30.89,-31.23,0,*75
1504029634.27,42597,24.25,74380.3,3.71,-30.89,-31.23,0,*74
1504029635.51,42598,24.25,74384.3,3.71,-31.05,-31.39,0,*75
1504029636.76,42599,24.25,74382.8,3.71,-30.95,-31.29,0,*7D
1504029638.02,42600,24.25,74384.5,3.73,-30.89,-31.23,0,*7B
1504029639.22,42601,24.25,74382.3,3.73,-30.83,-31.05,0,*74
1504029640.48,42602,24.25,74384.3,3.71,-30.83,-31.11,0,*70
1504029641.69,42603,24.25,74380.3,3.73,-30.67,-30.83,0,*73
1504029642.92,42604,24.25,74380.3,3.73,-30.61,-30.83,0,*72
1504029644.12,42605,24.25,74382.5,3.73,-30.67,-31.01,0,*7E
1504029645.38,42606,24.25,74384.0,3.73,-30.89,-31.23,0,*7D
1504029646.63,42607,24.25,74380.3,3.71,-30.95,-31.29,0,*79
1504029647.84,42608,24.25,74380.8,3.73,-30.83,-31.17,0,*7E
1504029649.07,42609,24.25,74384.8,3.73,-30.89,-31.17,0,*75
1504029650.26,42610,24.25,74380.8,3.73,-31.01,-31.33,0,*7A
1504029651.49,42611,24.25,74380.0,3.73,-31.17,-31.39,0,*76
1504029652.72,42612,24.25,74382.5,3.73,-30.89,-31.17,0,*7F
1504029653.94,42613,24.25,74384.5,3.75,-31.05,-31.33,0,*7B
1504029655.18,42614,24.25,74380.5,3.75,-31.17,-31.39,0,*75
1504029656.43,42615,24.25,74384.3,3.75,-31.05,-31.39,0,*77
1504029657.64,42616,24.25,74382.8,3.75,-31.01,-31.33,0,*7A
1504029658.89,42617,24.25,74380.3,3.75,-31.01,-31.23,0,*7A
1504029660.14,42618,24.25,74384.0,3.75,-30.89,-31.33,0,*75
1504029661.36,42619,24.25,74382.0,3.75,-31.05,-31.29,0,*7A
1504029662.57,42620,24.31,74386.0,3.75,-31.01,-31.33,0,*7F
1504029663.79,42621,24.25,74382.0,3.75,-31.05,-31.33,0,*7A
1504029665.04,42622,24.25,74380.5,3.75,-31.17,-31.39,0,*70
1504029666.31,42623,24.25,74386.3,3.75,-31.23,-31.51,0,*78
1504029667.53,42624,24.25,74380.5,3.75,-31.17,-31.33,0,*7C
1504029668.78,42625,24.25,74382.0,3.75,-31.01,-31.23,0,*7B
1504029670.0,42626,24.25,74380.3,3.75,-31.05,-31.33,0,*7D
1504029671.24,42627,24.25,74382.0,3.75,-31.01,-31.39,0,*72
1504029672.46,42628,24.25,74380.5,3.75,-30.83,-31.05,0,*79
1504029673.68,42629,24.25,74380.3,3.75,-31.01,-31.33,0,*76
1504029674.9,42630,24.25,74386.0,3.75,-31.33,-31.67,0,*7E
1504029676.17,42631,24.25,74382.5,3.75,-31.57,-31.85,0,*71
1504029677.42,42632,24.25,74382.5,3.75,-31.17,-31.39,0,*71
1504029678.67,42633,24.25,74380.0,3.75,-31.17,-31.51,0,*7E
1504029679.89,42634,24.25,74386.0,3.73,-31.01,-31.39,0,*76
1504029681.12,42635,24.25,74386.0,3.73,-31.01,-31.23,0,*7C
1504029682.35,42636,24.25,74384.3,3.73,-30.89,-31.17,0,*79
1504029683.55,42637,24.25,74386.0,3.73,-30.83,-31.05,0,*71
1504029684.78,42638,24.25,74380.3,3.73,-30.89,-31.17,0,*77
1504029685.98,42639,24.25,74382.5,3.73,-30.67,-31.01,0,*71
1504029687.23,42640,24.25,74382.0,3.75,-30.77,-31.01,0,*78
1504029688.48,42641,24.25,74380.5,3.75,-30.67,-30.89,0,*79
1504029689.73,42642,24.25,74380.8,3.75,-31.05,-31.23,0,*7E
1504029691.01,42643,24.25,74382.0,3.75,-30.89,-31.23,0,*7A
1504029692.25,42644,24.25,74382.8,3.75,-31.01,-31.23,0,*7C
1504029693.53,42645,24.25,74380.0,3.75,-30.89,-31.23,0,*7C
1504029694.75,42646,24.25,74384.3,3.79,-31.01,-31.17,0,*75
1504029695.98,42647,24.25,74382.5,3.77,-30.95,-31.17,0,*76
1504029697.23,42648,24.25,74382.3,3.75,-30.89,-31.17,0,*76
1504029698.43,42649,24.25,74384.3,3.77,-31.01,-31.17,0,*74
1504029699.65,42650,24.25,74380.8,3.77,-30.77,-31.17,0,*7C
1504029700.88,42651,24.31,74386.0,3.77,-30.83,-31.11,0,*70
1504029702.08,42652,24.25,74382.0,3.77,-31.01,-31.29,0,*73
1504029703.28,42653,24.25,74386.5,3.77,-30.83,-31.17,0,*74
1504029704.5,42654,24.25,74382.3,3.77,-30.73,-31.01,0,*7B
1504029705.7,42655,24.25,74382.8,3.77,-31.01,-31.29,0,*74
1504029706.9,42656,24.25,74380.8,3.77,-30.83,-31.29,0,*7C
1504029708.13,42657,24.25,74382.8,3.77,-30.95,-31.29,0,*7A
1504029709.33,42658,24.25,74384.8,3.77,-31.29,-31.45,0,*79
1504029710.53,42659,24.25,74380.3,3.77,-31.29,-31.33,0,*79
1504029711.73,42660,24.25,74384.0,3.77,-31.45,-31.67,0,*78
1504029712.93,42661,24.25,74382.0,3.77,-31.29,-31.45,0,*73
1504029714.18,42662,24.25,74380.3,3.75,-30.89,-31.33,0,*78
1504029715.41,42663,24.25,74380.3,3.77,-30.83,-31.11,0,*71
1504029716.64,42664,24.25,74384.0,3.77,-31.11,-31.17,0,*7A
1504029717.84,42665,24.25,74382.0,3.77,-31.33,-31.45,0,*7C
1504029719.07,42666,24.25,74382.5,3.77,-31.11,-31.33,0,*7E
1504029720.29,42667,24.25,74380.0,3.77,-31.33,-31.51,0,*7B
1504029721.51,42668,24.25,74380.0,3.77,-31.33,-31.61,0,*77
1504029722.76,42669,24.25,74384.5,3.79,-31.29,-31.61,0,*73
1504029723.99,42670,24.25,74380.5,3.77,-31.23,-31.33,0,*78
1504029725.19,42671,24.25,74382.3,3.77,-31.17,-31.45,0,*7F
1504029726.44,42672,24.25,74382.0,3.75,-31.33,-31.57,0,*7B
1504029727.67,42673,24.25,74380.5,3.77,-31.45,-31.61,0,*7C
1504029728.94,42674,24.25,74380.3,3.75,-31.57,-31.85,0,*70
1504029730.18,42675,24.25,74382.5,3.75,-31.39,-31.67,0,*75
1504029731.43,42676,24.25,74384.0,3.75,-31.33,-31.51,0,*79
1504029732.67,42677,24.25,74382.3,3.75,-31.33,-31.51,0,*78
1504029733.95,42678,24.25,74382.5,3.75,-31.23,-31.39,0,*78
1504029735.15,42679,24.25,74382.0,3.77,-31.17,-31.45,0,*77
1504029736.36,42680,24.25,74380.3,3.77,-31.29,-31.45,0,*7C
1504029737.63,42681,24.25,74380.8,3.75,-31.51,-31.85,0,*7C
1504029738.9,42682,24.25,74380.0,3.75,-31.57,-31.91,0,*7C
1504029740.17,42683,24.25,74382.5,3.75,-31.57,-31.91,0,*7D
1504029741.42,42684,24.25,74380.8,3.75,-31.57,-31.67,0,*73
1504029742.69,42685,24.25,74380.3,3.75,-31.51,-31.57,0,*77
1504029743.96,42686,24.25,74382.3,3.75,-31.23,-31.51,0,*77
1504029745.24,42687,24.25,74380.5,3.75,-31.23,-31.39,0,*78
1504029746.49,42688,24.25,74380.0,3.75,-31.17,-31.51,0,*7E
1504029747.77,42689,24.25,74386.5,3.75,-31.23,-31.51,0,*78
1504029748.99,42690,24.25,74380.5,3.73,-31.17,-31.39,0,*7F
1504029750.22,42691,24.25,74382.3,3.73,-31.05,-31.39,0,*7D
1504029751.47,42692,24.25,74382.8,3.73,-31.23,-31.51,0,*74
1504029752.67,42693,24.25,74382.0,3.73,-31.33,-31.67,0,*71
1504029753.91,42694,24.25,74382.5,3.73,-31.39,-31.57,0,*7F
1504029755.17,42695,24.25,74384.3,3.73,-31.23,-31.39,0,*7D
1504029756.4,42696,24.25,74382.0,3.73,-31.01,-31.23,0,*75
1504029757.63,42697,24.25,74382.8,3.73,-30.67,-30.89,0,*74
1504029758.84,42698,24.25,74382.0,3.73,-30.67,-31.01,0,*7A
1504029760.08,42699,24.25,74382.3,3.75,-30.77,-31.01,0,*7C
1504029761.36,42700,24.25,74380.0,3.75,-31.23,-31.51,0,*78
1504029762.61,42701,24.25,74382.0,3.75,-31.01,-31.23,0,*7C
1504029763.83,42702,24.25,74386.0,3.75,-30.67,-31.05,0,*7A
1504029765.05,42703,24.25,74382.5,3.75,-30.83,-31.05,0,*71
1504029766.3,42704,24.25,74382.5,3.77,-30.77,-31.11,0,*7A
1504029767.58,42705,24.25,74384.8,3.75,-30.89,-31.23,0,*79
1504029768.81,42706,24.25,74376.8,3.75,-30.83,-31.17,0,*77
1504029770.06,42707,24.25,74380.3,3.79,-30.95,-31.29,0,*70
1504029771.26,42708,24.25,74380.5,3.77,-31.01,-31.29,0,*7D
1504029772.48,42709,24.25,74378.8,3.77,-30.83,-31.11,0,*7C
1504029773.73,42710,24.25,74382.3,3.75,-31.01,-31.23,0,*7C
1504029774.93,42711,24.25,74380.5,3.77,-31.01,-31.29,0,*75
1504029776.15,42712,24.25,74380.5,3.77,-30.95,-31.29,0,*7A
1504029777.43,42713,24.25,74382.5,3.75,-31.23,-31.51,0,*7A
1504029778.63,42714,24.25,74380.5,3.77,-31.17,-31.33,0,*7C
1504029779.85,42715,24.25,74382.5,3.77,-31.11,-31.33,0,*7B
1504029781.08,42716,24.25,74382.0,3.77,-30.77,-31.01,0,*78
1504029782.29,42717,24.25,74382.0,3.75,-31.05,-31.33,0,*7E
1504029783.52,42718,24.25,74378.5,3.77,-31.17,-31.51,0,*74
1504029784.76,42719,24.25,74380.3,3.75,-31.33,-31.57,0,*77
1504029785.99,42720,24.25,74382.5,3.77,-31.11,-31.29,0,*76
1504029787.22,42721,24.25,74382.5,3.77,-31.11,-31.45,0,*7D
1504029788.44,42722,24.25,74382.3,3.77,-31.33,-31.51,0,*7B
1504029789.64,42723,24.25,74382.0,3.77,-31.45,-31.79,0,*71
1504029790.91,42724,24.25,74380.8,3.75,-31.39,-31.73,0,*75
1504029792.13,42725,24.25,74382.0,3.79,-31.29,-31.33,0,*7D
1504029793.4,42726,24.25,74382.5,3.75,-31.51,-31.85,0,*70
1504029794.65,42727,24.25,74382.3,3.75,-31.17,-31.51,0,*7A
1504029795.89,42728,24.25,74382.5,3.75,-31.33,-31.57,0,*75
1504029797.14,42729,24.25,74380.8,3.75,-31.33,-31.39,0,*7C
1504029798.36,42730,24.25,74380.3,3.77,-30.95,-31.29,0,*7A
1504029799.61,42731,24.25,74378.5,3.75,-30.77,-31.05,0,*7B
1504029800.83,42732,24.25,74382.8,3.75,-31.01,-31.33,0,*7D
1504029802.1,42733,24.25,74382.3,3.75,-31.23,-31.51,0,*78
1504029803.35,42734,24.25,74378.8,3.75,-31.51,-31.67,0,*7F
1504029804.59,42735,24.25,74380.0,3.75,-31.17,-31.39,0,*77
1504029805.87,42736,24.25,74382.3,3.75,-31.23,-31.57,0,*7B
1504029807.14,42737,24.25,74380.8,3.75,-31.39,-31.51,0,*77
1504029808.35,42738,24.25,74380.5,3.75,-31.33,-31.67,0,*77
1504029809.58,42739,24.25,74380.3,3.77,-31.33,-31.51,0,*71
1504029810.82,42740,24.25,74380.8,3.75,-31.33,-31.51,0,*7D
1504029812.04,42741,24.25,74378.8,3.75,-31.33,-31.67,0,*79
1504029813.28,42742,24.25,74382.5,3.75,-31.39,-31.67,0,*70
1504029814.55,42743,24.25,74380.8,3.75,-31.51,-31.73,0,*7A
1504029815.79,42744,24.25,74382.3,3.75,-31.39,-31.67,0,*76
1504029817.06,42745,24.25,74378.3,3.75,-31.57,-31.85,0,*73
1504029818.34,42746,24.25,74380.5,3.75,-31.23,-31.51,0,*7A
1504029819.59,42747,24.25,74380.5,3.75,-31.05,-31.51,0,*7F
1504029820.85,42748,24.25,74384.0,3.75,-31.51,-31.73,0,*71
1504029822.13,42749,24.25,74380.3,3.71,-31.61,-31.91,0,*7B
1504029823.38,42750,24.25,74380.3,3.73,-31.51,-31.85,0,*77
1504029824.62,42751,24.25,74382.3,3.73,-31.51,-31.73,0,*7F
1504029825.84,42752,24.25,74380.8,3.73,-31.33,-31.57,0,*7E
1504029827.12,42753,24.25,74382.0,3.71,-31.57,-31.91,0,*75
1504029828.37,42754,24.25,74380.0,3.71,-31.61,-31.79,0,*71
1504029829.62,42755,24.25,74382.8,3.71,-31.57,-31.79,0,*75
1504029830.9,42756,24.25,74382.5,3.71,-31.57,-31.91,0,*70
1504029832.18,42757,24.25,74378.8,3.71,-31.61,-31.95,0,*70
1504029833.45,42758,24.25,74382.5,3.71,-31.39,-31.61,0,*79
1504029834.73,42759,24.25,74380.0,3.71,-31.23,-31.57,0,*76
1504029835.98,42760,24.25,74380.5,3.71,-31.29,-31.57,0,*76
1504029837.25,42761,24.25,74382.5,3.71,-31.57,-31.61,0,*7B
1504029838.52,42762,24.25,74384.0,3.71,-31.39,-31.57,0,*75
1504029839.77,42763,24.25,74380.0,3.71,-31.29,-31.57,0,*75
1504029841.02,42764,24.25,74380.5,3.71,-31.61,-31.79,0,*72
1504029842.29,42765,24.25,74382.3,3.71,-31.39,-31.61,0,*77
1504029843.57,42766,24.25,74378.8,3.71,-31.61,-31.73,0,*7A
1504029844.79,42767,24.25,74380.8,3.67,-31.67,-32.01,0,*7C
1504029846.07,42768,24.25,74380.5,3.67,-31.51,-31.85,0,*79
1504029847.32,42769,24.25,74382.5,3.67,-31.33,-31.61,0,*76
1504029848.55,42770,24.25,74382.3,3.67,-31.45,-31.79,0,*76
1504029849.8,42771,24.25,74378.0,3.67,-31.51,-31.67,0,*7D
1504029851.03,42772,24.25,74378.0,3.67,-31.45,-31.67,0,*7B
1504029852.28,42773,24.25,74380.8,3.67,-31.29,-31.51,0,*75
1504029853.53,42774,24.25,74378.3,3.67,-30.95,-31.33,0,*70
1504029854.74,42775,24.25,74380.3,3.65,-31.17,-31.45,0,*79
1504029856.0,42776,24.25,74382.0,3.67,-31.29,-31.51,0,*70
1504029857.25,42777,24.25,74382.3,3.67,-31.29,-31.61,0,*72
1504029858.5,42778,24.25,74380.0,3.67,-31.51,-31.67,0,*74
1504029859.76,42779,24.25,74378.0,3.65,-31.51,-31.95,0,*7A
1504029860.96,42780,24.25,74380.8,3.65,-31.45,-31.79,0,*7B
1504029862.22,42781,24.25,74380.3,3.65,-31.61,-31.85,0,*7F
1504029863.45,42782,24.25,74380.0,3.65,-31.29,-31.51,0,*79
1504029864.68,42783,24.25,74378.3,3.67,-31.01,-31.29,0,*7F
1504029865.91,42784,24.25,74382.0,3.67,-31.17,-31.45,0,*75
1504029867.14,42785,24.25,74380.5,3.65,-31.33,-31.61,0,*76
1504029868.37,42786,24.25,74380.8,3.65,-31.33,-31.51,0,*76
1504029869.6,42787,24.25,74382.5,3.67,-31.17,-31.45,0,*76
1504029870.84,42788,24.25,74378.3,3.65,-31.45,-31.61,0,*7A
1504029872.07,42789,24.25,74380.0,3.65,-31.33,-31.61,0,*7A
1504029873.3,42790,24.25,74380.0,3.65,-31.17,-31.51,0,*77
1504029874.51,42791,24.25,74380.8,3.65,-31.45,-31.67,0,*74
1504029875.73,42792,24.25,74382.8,3.65,-31.51,-31.67,0,*72
1504029876.94,42793,24.25,74378.8,3.65,-31.45,-31.79,0,*79
1504029878.19,42794,24.25,74382.3,3.67,-31.51,-31.67,0,*76
1504029879.42,42795,24.25,74380.8,3.65,-31.11,-31.29,0,*7B
1504029880.65,42796,24.25,74380.8,3.65,-30.95,-31.29,0,*75
1504029881.89,42797,24.25,74378.8,3.67,-31.17,-31.45,0,*77
1504029883.12,42798,24.25,74380.5,3.65,-31.17,-31.51,0,*7F
1504029884.33,42799,24.25,74382.8,3.65,-31.17,-31.45,0,*7B
1504029885.53,42800,24.25,74380.8,3.65,-31.01,-31.33,0,*72
1504029886.78,42801,24.25,74382.5,3.67,-31.33,-31.51,0,*74
1504029887.98,42802,24.25,74380.0,3.65,-31.33,-31.67,0,*70
1504029889.19,42803,24.25,74380.8,3.65,-31.45,-31.79,0,*7F
1504029890.44,42804,24.25,74380.8,3.67,-31.51,-31.79,0,*7F
1504029891.64,42805,24.25,74380.5,3.65,-31.33,-31.67,0,*77
1504029892.85,42806,24.25,74382.8,3.65,-31.17,-31.45,0,*72
1504029894.1,42807,24.25,74382.5,3.67,-31.33,-31.61,0,*71
1504029895.31,42808,24.25,74382.3,3.65,-31.45,-31.79,0,*74
1504029896.55,42809,24.25,74382.0,3.65,-31.45,-31.61,0,*7C
1504029897.77,42810,24.25,74380.5,3.65,-31.51,-31.67,0,*77
1504029899.0,42811,24.25,74380.8,3.65,-31.51,-31.67,0,*76
1504029900.21,42812,24.25,74382.8,3.63,-31.33,-31.73,0,*72
1504029901.48,42813,24.25,74382.5,3.65,-31.61,-31.95,0,*7A
1504029902.73,42814,24.25,74380.5,3.65,-31.61,-31.85,0,*7C
1504029903.98,42815,24.25,74382.3,3.63,-31.51,-31.73,0,*71
1504029905.2,42816,24.25,74382.3,3.63,-31.33,-31.57,0,*70
1504029906.42,42817,24.25,74382.3,3.63,-31.05,-31.39,0,*7C
1504029907.67,42818,24.25,74382.8,3.63,-31.23,-31.57,0,*7F
1504029908.89,42819,24.25,74380.5,3.63,-31.33,-31.57,0,*7F
1504029910.13,42820,24.25,74382.3,3.63,-31.39,-31.57,0,*7F
1504029911.35,42821,24.25,74380.5,3.63,-31.39,-31.67,0,*7D
1504029912.57,42822,24.25,74380.5,3.61,-31.33,-31.67,0,*76
1504029913.81,42823,24.25,74380.5,3.63,-31.51,-31.85,0,*7D
1504029915.06,42824,24.25,74382.0,3.61,-31.33,-31.57,0,*73
1504029916.28,42825,24.25,74382.5,3.63,-31.33,-31.57,0,*70
1504029917.52,42826,24.25,74380.8,3.61,-31.33,-31.57,0,*71
1504029918.79,42827,24.25,74380.0,3.61,-31.57,-31.85,0,*7D
1504029920.04,42828,24.25,74382.3,3.61,-31.39,-31.67,0,*76
1504029921.3,42829,24.19,74378.8,3.61,-31.51,-31.73,0,*7C
1504029922.58,42830,24.19,74378.0,3.61,-31.51,-31.85,0,*7D
1504029923.82,42831,24.25,74382.0,3.63,-31.51,-31.73,0,*77
1504029925.06,42832,24.25,74380.8,3.63,-31.51,-31.73,0,*74
1504029926.33,42833,24.25,74382.3,3.61,-31.51,-31.73,0,*77
1504029927.55,42834,24.25,74380.5,3.61,-31.33,-31.67,0,*71
1504029928.77,42835,24.19,74378.8,3.63,-31.33,-31.57,0,*71
1504029930.04,42836,24.25,74380.0,3.61,-31.39,-31.73,0,*7C
1504029931.26,42837,24.25,74380.3,3.63,-31.39,-31.67,0,*7A
1504029932.51,42838,24.25,74378.8,3.59,-31.57,-31.91,0,*7D
1504029933.73,42839,24.25,74380.5,3.59,-31.57,-31.79,0,*7A
1504029934.94,42840,24.25,74384.0,3.59,-31.45,-31.79,0,*77
1504029936.19,42841,24.25,74382.3,3.59,-31.23,-31.39,0,*72
1504029937.42,42842,24.25,74382.0,3.59,-31.29,-31.61,0,*76
1504029938.64,42843,24.19,74376.8,3.59,-31.29,-31.61,0,*77
1504029939.87,42844,24.25,74382.0,3.59,-31.45,-31.73,0,*79
1504029941.12,42845,24.25,74380.0,3.59,-31.39,-31.61,0,*70
1504029942.37,42846,24.19,74380.5,3.59,-31.39,-31.61,0,*73
1504029943.6,42847,24.25,74382.5,3.59,-31.29,-31.61,0,*73
1504029944.85,42848,24.25,74380.5,3.57,-31.51,-31.67,0,*7B
1504029946.13,42849,24.25,74382.5,3.61,-31.23,-31.51,0,*7F
1504029947.35,42850,24.25,74380.5,3.59,-31.45,-31.73,0,*7C
1504029948.6,42851,24.19,74376.5,3.59,-31.61,-31.91,0,*77
1504029949.85,42852,24.25,74382.0,3.57,-31.51,-31.67,0,*70
1504029951.1,42853,24.25,74382.0,3.59,-31.39,-31.61,0,*77
1504029952.38,42854,24.25,74382.0,3.57,-31.61,-31.85,0,*79
1504029953.61,42855,24.19,74376.5,3.59,-31.45,-31.73,0,*79
1504029954.86,42856,24.19,74378.0,3.57,-31.51,-31.67,0,*74
1504029956.11,42857,24.19,74378.8,3.57,-31.33,-31.61,0,*77
1504029957.37,42858,24.25,74382.0,3.57,-31.29,-31.61,0,*73
1504029958.63,42859,24.25,74382.0,3.57,-31.29,-31.51,0,*71
1504029959.86,42860,24.25,74380.0,3.59,-31.11,-31.45,0,*7B
1504029961.12,42861,24.19,74380.0,3.57,-31.11,-31.45,0,*74
1504029962.41,42862,24.25,74382.3,3.57,-31.11,-31.51,0,*72
1504029963.65,42863,24.19,74378.8,3.59,-31.23,-31.45,0,*79
1504029964.89,42864,24.25,74380.0,3.59,-31.39,-31.61,0,*73
1504029966.12,42865,24.19,74376.3,3.57,-31.33,-31.67,0,*70
1504029967.38,42866,24.25,74382.0,3.59,-31.11,-31.39,0,*76
1504029968.63,42867,24.25,74380.8,3.57,-31.29,-31.61,0,*7F
1504029969.89,42868,24.25,74380.0,3.57,-31.17,-31.51,0,*7E
1504029971.14,42869,24.25,74382.5,3.57,-31.29,-31.51,0,*72
1504029972.37,42870,24.19,74378.8,3.59,-31.45,-31.57,0,*78
1504029973.62,42871,24.19,74380.5,3.57,-31.61,-31.79,0,*7D
1504029974.85,42872,24.25,74380.0,3.59,-31.45,-31.73,0,*7C
1504029976.11,42873,24.25,74380.8,3.57,-31.45,-31.61,0,*70
1504029977.37,42874,24.25,74380.5,3.57,-31.11,-31.33,0,*71
1504029978.6,42875,24.19,74380.0,3.57,-31.45,-31.79,0,*7F
1504029979.85,42876,24.19,74376.5,3.57,-31.51,-31.79,0,*79
1504029981.08,42877,24.25,74380.0,3.55,-31.29,-31.61,0,*7C
1504029982.31,42878,24.25,74380.5,3.55,-31.11,-31.33,0,*7F
1504029983.56,42879,24.25,74382.5,3.57,-30.95,-31.33,0,*71
1504029984.85,42880,24.25,74380.8,3.57,-31.11,-31.61,0,*7D
1504029986.08,42881,24.19,74380.0,3.57,-31.45,-31.79,0,*74
1504029987.31,42882,24.25,74380.5,3.57,-31.29,-31.67,0,*72
1504029988.5,42883,24.19,74380.3,3.59,-31.33,-31.67,0,*76
1504029989.73,42884,24.25,74382.0,3.57,-31.29,-31.67,0,*74
1504029990.99,42885,24.19,74378.5,3.57,-31.11,-31.45,0,*7E
1504029992.26,42886,24.19,74378.8,3.57,-31.11,-31.45,0,*7D
1504029993.48,42887,24.25,74382.8,3.57,-31.33,-31.67,0,*7C
1504029994.74,42888,24.25,74382.8,3.57,-31.29,-31.61,0,*7E
1504029995.97,42889,24.19,74380.0,3.57,-31.33,-31.67,0,*72
1504029997.2,42890,24.19,74380.5,3.57,-31.45,-31.67,0,*7B
1504029998.4,42891,24.25,74380.0,3.55,-31.29,-31.67,0,*72
1504029999.65,42892,24.25,74382.3,3.57,-31.33,-31.61,0,*7E
1504030000.85,42893,24.25,74380.8,3.55,-31.33,-31.67,0,*7B
1504030002.08,42894,24.25,74380.5,3.55,-31.29,-31.61,0,*71
1504030003.31,42895,24.25,74380.8,3.55,-31.29,-31.61,0,*70
1504030004.51,42896,24.19,74380.0,3.55,-31.33,-31.79,0,*71
1504030005.76,42897,24.25,74380.5,3.55,-31.61,-31.85,0,*74
1504030007.02,42898,24.19,74380.0,3.55,-31.11,-31.51,0,*75
1504030008.26,42899,24.25,74382.8,3.55,-31.11,-31.45,0,*71
1504030009.55,42900,24.19,74376.8,3.53,-31.23,-31.61,0,*71
1504030010.77,42901,24.25,74382.3,3.55,-31.17,-31.61,0,*71
1504030012.01,42902,24.25,74380.3,3.55,-30.95,-31.29,0,*75
1504030013.26,42903,24.25,74380.8,3.55,-31.11,-31.51,0,*76
1504030014.49,42904,24.19,74380.5,3.55,-31.17,-31.51,0,*77
1504030015.74,42905,24.25,74380.8,3.53,-31.17,-31.57,0,*76
1504030016.97,42906,24.19,74378.3,3.55,-31.17,-31.51,0,*75
1504030018.2,42907,24.19,74380.0,3.55,-31.29,-31.61,0,*7A
1504030019.43,42908,24.19,74380.5,3.55,-31.29,-31.61,0,*75
1504030020.66,42909,24.25,74380.0,3.55,-31.29,-31.51,0,*77
1504030021.89,42910,24.19,74382.0,3.55,-31.17,-31.51,0,*72
1504030023.12,42911,24.25,74380.0,3.55,-31.29,-31.61,0,*7D
1504030024.37,42912,24.19,74382.8,3.53,-31.17,-31.39,0,*78
1504030025.64,42913,24.25,74382.0,3.53,-31.39,-31.57,0,*7D
1504030026.88,42914,24.19,74380.8,3.55,-31.29,-31.61,0,*78
1504030028.13,42915,24.25,74382.0,3.57,-31.33,-31.61,0,*70
1504030029.38,42916,24.19,74382.3,3.53,-31.17,-31.57,0,*74
1504030030.67,42917,24.25,74382.8,3.53,-31.23,-31.51,0,*74
1504030031.89,42918,24.25,74382.3,3.55,-31.17,-31.61,0,*79
1504030033.1,42919,24.19,74376.5,3.55,-31.33,-31.79,0,*77
1504030034.38,42920,24.19,74382.5,3.53,-31.57,-31.91,0,*7F
1504030035.58,42921,24.19,74380.5,3.55,-31.17,-31.67,0,*75
1504030036.8,42922,24.19,74378.3,3.53,-31.33,-31.67,0,*76
1504030038.03,42923,24.19,74378.3,3.55,-31.17,-31.51,0,*72
1504030039.28,42924,24.19,74382.8,3.53,-31.33,-31.57,0,*73
1504030040.56,42925,24.19,74380.3,3.53,-31.23,-31.57,0,*73
1504030041.84,42926,24.19,74382.5,3.53,-31.11,-31.39,0,*79
1504030043.07,42927,24.19,74378.8,3.55,-31.17,-31.51,0,*76
1504030044.31,42928,24.19,74380.3,3.55,-31.11,-31.29,0,*70
1504030045.51,42929,24.19,74376.5,3.55,-31.05,-31.45,0,*7E
1504030046.77,42930,24.19,74380.8,3.57,-30.95,-31.29,0,*76
1504030047.97,42931,24.25,74380.3,3.55,-31.05,-31.33,0,*76
1504030049.2,42932,24.19,74380.3,3.55,-31.17,-31.61,0,*71
1504030050.42,42933,24.19,74378.5,3.53,-31.33,-31.67,0,*76
1504030051.66,42934,24.25,74382.8,3.55,-31.11,-31.45,0,*77
1504030052.86,42935,24.19,74378.5,3.55,-31.05,-31.33,0,*72
1504030054.09,42936,24.19,74378.0,3.55,-31.29,-31.51,0,*7B
1504030055.29,42937,24.19,74382.0,3.55,-31.17,-31.45,0,*72
1504030056.49,42938,24.25,74382.8,3.55,-31.05,-31.33,0,*7F
1504030057.7,42939,24.19,74378.3,3.55,-31.05,-31.45,0,*7F
1504030058.95,42940,24.19,74380.3,3.53,-31.17,-31.51,0,*71
1504030060.18,42941,24.19,74378.8,3.55,-31.11,-31.33,0,*74
1504030061.41,42942,24.19,74380.5,3.55,-31.29,-31.61,0,*7B
1504030062.67,42943,24.25,74382.5,3.55,-31.11,-31.51,0,*72
1504030063.9,42944,24.19,74380.5,3.55,-31.17,-31.51,0,*73
1504030065.1,42945,24.19,74380.5,3.55,-31.33,-31.67,0,*71
1504030066.35,42946,24.19,74380.5,3.53,-31.17,-31.39,0,*79
1504030067.61,42947,24.19,74378.8,3.53,-31.17,-31.51,0,*76
1504030068.84,42948,24.19,74376.5,3.55,-31.11,-31.45,0,*7C
1504030070.05,42949,24.19,74382.3,3.55,-31.05,-31.45,0,*78
1504030071.31,42950,24.19,74380.5,3.55,-31.11,-31.51,0,*70
1504030072.53,42951,24.19,74382.0,3.55,-31.05,-31.51,0,*74
1504030073.76,42952,24.19,74382.0,3.55,-30.95,-31.33,0,*7B
1504030075.02,42953,24.19,74382.0,3.55,-31.11,-31.51,0,*73
1504030076.22,42954,24.25,74382.3,3.55,-31.33,-31.67,0,*71
1504030077.5,42955,24.19,74380.0,3.53,-31.11,-31.51,0,*73
1504030078.75,42956,24.19,74376.5,3.53,-31.17,-31.57,0,*70
1504030079.98,42957,24.19,74378.0,3.55,-30.95,-31.17,0,*78
1504030081.24,42958,24.19,74382.8,3.55,-31.11,-31.51,0,*78
1504030082.47,42959,24.19,74382.0,3.55,-31.29,-31.61,0,*71
1504030083.7,42960,24.19,74380.0,3.55,-30.95,-31.29,0,*71
1504030084.93,42961,24.19,74382.0,3.57,-31.05,-31.29,0,*7A
1504030086.19,42962,24.19,74378.0,3.57,-31.11,-31.45,0,*76
1504030087.45,42963,24.19,74378.0,3.57,-30.95,-31.45,0,*7A
1504030088.71,42964,24.19,74382.0,3.57,-31.11,-31.33,0,*71
1504030089.97,42965,24.19,74380.0,3.57,-31.17,-31.51,0,*72
1504030091.23,42966,24.19,74382.3,3.57,-31.11,-31.45,0,*72
1504030092.46,42967,24.19,74380.0,3.57,-31.05,-31.33,0,*77
1504030093.72,42968,24.19,74382.0,3.57,-31.11,-31.45,0,*7C
1504030095.01,42969,24.19,74382.5,3.57,-31.11,-31.51,0,*78
1504030096.26,42970,24.19,74378.5,3.57,-31.17,-31.51,0,*76
1504030097.48,42971,24.19,74382.3,3.59,-31.01,-31.11,0,*7A
1504030098.71,42972,24.19,74382.8,3.57,-31.17,-31.33,0,*70
1504030099.99,42973,24.19,74382.0,3.61,-31.23,-31.51,0,*77
1504030101.22,42974,24.19,74380.0,3.57,-31.45,-31.67,0,*70
1504030102.45,42975,24.19,74378.3,3.57,-31.05,-31.17,0,*72
1504030103.71,42976,24.19,74382.0,3.57,-31.11,-31.45,0,*73